{"data":{"norad_id":58804,"epoch":"2026-09-19T02:17:48.533568Z","epoch_age_seconds":273815,"freshness":"STALE","line1":"1 58804U 24012T   26262.09570062  .00003057  00000+0  12063-3 0  9990","line2":"2 58804  43.0059 153.0966 0001312 219.4196 140.6560 15.27561403150818","mean_motion":15.27561403,"eccentricity":0.0001312,"inclination_deg":43.0059,"raan_deg":153.0966,"arg_perigee_deg":219.4196,"mean_anomaly_deg":140.656,"bstar":0.00012063,"rev_number":15081,"period_min":94.267896345899,"perigee_km":482.20458779095,"apogee_km":484.00497763473,"semimajor_km":6861.2417827128,"source":"CELESTRAK","updated_at":"2026-09-21T09:00:33.981679Z"}}